Time,TemperatureF,DewpointF,PressureIn,WindDirection,WindDirectionDegrees,WindSpeedMPH,WindSpeedGustMPH,Humidity,HourlyPrecipIn,Conditions,Clouds,dailyrainin,SoftwareType,DateUTC
2013-09-19 00:00:00,45.4,42.3,29.67,NNW,336,0.0,0.0,89,0.00,,---,0.09,VWS V14.01,2013-09-19 06:00:00,
2013-09-19 00:10:00,45.9,42.0,29.65,NNW,331,9.0,12.0,86,0.00,,---,0.00,VWS V14.01,2013-09-19 06:10:00,
2013-09-19 00:20:00,45.8,41.9,29.66,NNW,338,3.0,12.0,86,0.00,,---,0.00,VWS V14.01,2013-09-19 06:20:00,
2013-09-19 00:30:00,45.6,41.7,29.65,NNW,338,6.0,10.0,86,0.00,,---,0.00,VWS V14.01,2013-09-19 06:30:00,
2013-09-19 00:40:00,45.7,41.5,29.66,NNW,338,5.0,11.0,85,0.00,,---,0.00,VWS V14.01,2013-09-19 06:40:00,
2013-09-19 00:50:00,45.8,41.5,29.66,NNW,338,0.0,8.0,85,0.00,,---,0.00,VWS V14.01,2013-09-19 06:50:00,
2013-09-19 01:00:00,46.0,41.4,29.66,NNW,338,0.0,0.0,84,0.00,,---,0.00,VWS V14.01,2013-09-19 07:00:00,
2013-09-19 01:10:00,47.0,41.5,29.65,NNW,338,0.0,0.0,81,0.00,,---,0.00,VWS V14.01,2013-09-19 07:10:00,
2013-09-19 01:20:00,46.9,41.4,29.65,NNW,338,0.0,0.0,81,0.00,,---,0.00,VWS V14.01,2013-09-19 07:20:00,
2013-09-19 01:30:00,46.7,41.5,29.66,NNW,338,0.0,0.0,82,0.00,,---,0.00,VWS V14.01,2013-09-19 07:30:00,
2013-09-19 01:40:00,46.5,41.3,29.65,NNW,338,0.0,0.0,82,0.00,,---,0.00,VWS V14.01,2013-09-19 07:40:00,
2013-09-19 01:50:00,46.5,41.3,29.65,NNW,338,0.0,0.0,82,0.00,,---,0.00,VWS V14.01,2013-09-19 07:50:00,
2013-09-19 02:00:00,45.0,40.8,29.67,NNW,338,0.0,0.0,85,0.00,,---,0.00,VWS V14.01,2013-09-19 08:00:00,
2013-09-19 02:10:00,44.7,40.8,29.73,NNW,338,0.0,0.0,86,0.00,,---,0.00,VWS V14.01,2013-09-19 08:10:00,
2013-09-19 02:20:00,44.2,40.6,29.73,NNW,338,0.0,0.0,87,0.00,,---,0.00,VWS V14.01,2013-09-19 08:20:00,
2013-09-19 02:30:00,43.7,40.1,29.74,NNW,338,0.0,0.0,87,0.00,,---,0.00,VWS V14.01,2013-09-19 08:30:00,
2013-09-19 02:40:00,43.3,39.7,29.75,NNW,338,0.0,0.0,87,0.00,,---,0.00,VWS V14.01,2013-09-19 08:40:00,
2013-09-19 02:50:00,42.9,39.3,29.76,NNW,338,0.0,0.0,87,0.00,,---,0.00,VWS V14.01,2013-09-19 08:50:00,
2013-09-19 03:00:00,42.5,39.2,29.76,NNW,338,0.0,0.0,88,0.00,,---,0.00,VWS V14.01,2013-09-19 09:00:00,
2013-09-19 03:10:00,42.3,39.3,29.74,NNW,338,0.0,0.0,89,0.00,,---,0.00,VWS V14.01,2013-09-19 09:10:00,
2013-09-19 03:20:00,41.6,38.6,29.74,NNW,338,0.0,0.0,89,0.00,,---,0.00,VWS V14.01,2013-09-19 09:20:00,
2013-09-19 03:30:00,41.8,38.8,29.74,NNW,338,0.0,0.0,89,0.00,,---,0.00,VWS V14.01,2013-09-19 09:30:00,
2013-09-19 03:40:00,42.3,39.3,29.73,NNW,338,0.0,0.0,89,0.00,,---,0.00,VWS V14.01,2013-09-19 09:40:00,
2013-09-19 03:50:00,42.5,39.2,29.70,NNW,338,0.0,0.0,88,0.00,,---,0.00,VWS V14.01,2013-09-19 09:50:00,
2013-09-19 04:00:00,42.2,38.9,29.72,NNW,338,0.0,0.0,88,0.00,,---,0.00,VWS V14.01,2013-09-19 10:00:00,
2013-09-19 04:10:00,41.8,38.8,29.74,NNW,338,0.0,0.0,89,0.00,,---,0.00,VWS V14.01,2013-09-19 10:10:00,
2013-09-19 04:20:00,41.7,38.7,29.74,NNW,338,0.0,0.0,89,0.00,,---,0.00,VWS V14.01,2013-09-19 10:20:00,
2013-09-19 04:30:00,41.8,38.8,29.74,NNW,338,0.0,0.0,89,0.00,,---,0.00,VWS V14.01,2013-09-19 10:30:00,
2013-09-19 04:40:00,41.1,38.1,29.75,NNW,338,0.0,0.0,89,0.00,,---,0.00,VWS V14.01,2013-09-19 10:40:00,
2013-09-19 04:50:00,41.5,38.5,29.75,NNW,338,0.0,0.0,89,0.00,,---,0.00,VWS V14.01,2013-09-19 10:50:00,
2013-09-19 05:00:00,41.3,38.3,29.75,NNW,338,0.0,0.0,89,0.00,,---,0.00,VWS V14.01,2013-09-19 11:00:00,
2013-09-19 05:10:00,40.9,37.6,29.80,NNW,338,0.0,0.0,88,0.00,,---,0.00,VWS V14.01,2013-09-19 11:10:00,
2013-09-19 05:20:00,40.0,36.7,29.80,NNW,338,0.0,0.0,88,0.00,,---,0.00,VWS V14.01,2013-09-19 11:20:00,
2013-09-19 05:30:00,40.6,37.9,29.81,NNW,338,0.0,0.0,90,0.00,,---,0.00,VWS V14.01,2013-09-19 11:30:00,
2013-09-19 05:40:00,41.0,39.7,29.81,NNW,338,0.0,0.0,95,0.00,,---,0.00,VWS V14.01,2013-09-19 11:40:00,
2013-09-19 05:50:00,40.6,37.6,29.81,NNW,338,0.0,0.0,89,0.00,,---,0.00,VWS V14.01,2013-09-19 11:50:00,
2013-09-19 06:00:00,40.9,38.2,29.82,NNW,338,0.0,0.0,90,0.00,,---,0.00,VWS V14.01,2013-09-19 12:00:00,
2013-09-19 06:10:00,41.2,38.2,29.82,NNW,338,0.0,0.0,89,0.00,,---,0.00,VWS V14.01,2013-09-19 12:10:00,
2013-09-19 06:20:00,41.0,38.0,29.82,NNW,338,0.0,0.0,89,0.00,,---,0.00,VWS V14.01,2013-09-19 12:20:00,
2013-09-19 06:30:00,40.4,37.4,29.82,NNW,338,0.0,0.0,89,0.00,,---,0.00,VWS V14.01,2013-09-19 12:30:00,
2013-09-19 06:40:00,39.7,37.0,29.84,NNW,338,0.0,0.0,90,0.00,,---,0.00,VWS V14.01,2013-09-19 12:40:00,
2013-09-19 06:50:00,40.0,37.6,29.84,NNW,338,0.0,0.0,91,0.00,,---,0.00,VWS V14.01,2013-09-19 12:50:00,
2013-09-19 07:00:00,40.7,38.0,29.82,NNW,338,0.0,0.0,90,0.00,,---,0.00,VWS V14.01,2013-09-19 13:00:00,
2013-09-19 07:10:00,40.3,37.3,29.84,NNW,338,0.0,0.0,89,0.00,,---,0.00,VWS V14.01,2013-09-19 13:10:00,
2013-09-19 07:20:00,41.1,38.4,29.82,NNW,338,0.0,0.0,90,0.00,,---,0.00,VWS V14.01,2013-09-19 13:20:00,
2013-09-19 07:30:00,42.6,39.9,29.81,NNW,338,0.0,0.0,90,0.00,,---,0.00,VWS V14.01,2013-09-19 13:30:00,
2013-09-19 07:40:00,43.3,40.0,29.81,NNW,338,0.0,0.0,88,0.00,,---,0.00,VWS V14.01,2013-09-19 13:40:00,
2013-09-19 07:50:00,44.5,40.9,29.80,NNW,338,2.0,9.0,87,0.00,,---,0.00,VWS V14.01,2013-09-19 13:50:00,
2013-09-19 08:00:00,45.6,41.4,29.79,NNW,338,0.0,4.0,85,0.00,,---,0.00,VWS V14.01,2013-09-19 14:00:00,
2013-09-19 08:10:00,47.1,41.9,29.82,NNW,338,2.0,6.0,82,0.00,,---,0.00,VWS V14.01,2013-09-19 14:10:00,
2013-09-19 08:20:00,47.7,41.5,29.80,NNW,338,1.0,6.0,79,0.00,,---,0.00,VWS V14.01,2013-09-19 14:20:00,
2013-09-19 08:30:00,48.6,41.7,29.80,NNW,338,0.0,6.0,77,0.00,,---,0.00,VWS V14.01,2013-09-19 14:30:00,
2013-09-19 08:40:00,49.8,42.5,29.79,NNW,338,0.0,4.0,76,0.00,,---,0.00,VWS V14.01,2013-09-19 14:40:00,
2013-09-19 08:50:00,50.4,42.4,29.79,NNW,338,0.0,0.0,74,0.00,,---,0.00,VWS V14.01,2013-09-19 14:50:00,
2013-09-19 09:00:00,51.4,43.0,29.79,NNW,338,0.0,0.0,73,0.00,,---,0.00,VWS V14.01,2013-09-19 15:00:00,
2013-09-19 09:10:00,52.3,42.8,29.79,ENE,64,0.0,0.0,70,0.00,,---,0.00,VWS V14.01,2013-09-19 15:10:00,
2013-09-19 09:20:00,53.0,42.3,29.78,ENE,64,0.0,0.0,67,0.00,,---,0.00,VWS V14.01,2013-09-19 15:20:00,
2013-09-19 09:30:00,53.3,41.5,29.78,ENE,65,0.0,0.0,64,0.00,,---,0.00,VWS V14.01,2013-09-19 15:30:00,
2013-09-19 09:40:00,53.9,41.6,29.78,NE,55,0.0,0.0,63,0.00,,---,0.00,VWS V14.01,2013-09-19 15:40:00,
2013-09-19 09:50:00,54.5,42.2,29.76,ESE,113,0.0,6.0,63,0.00,,---,0.00,VWS V14.01,2013-09-19 15:50:00,
2013-09-19 10:00:00,54.7,42.8,29.76,ESE,119,1.0,5.0,64,0.00,,---,0.00,VWS V14.01,2013-09-19 16:00:00,
2013-09-19 10:10:00,55.0,43.5,29.78,SE,125,1.0,9.0,65,0.00,,---,0.00,VWS V14.01,2013-09-19 16:10:00,
2013-09-19 10:20:00,54.5,43.4,29.78,SE,133,0.0,10.0,66,0.00,,---,0.00,VWS V14.01,2013-09-19 16:20:00,
2013-09-19 10:30:00,54.9,43.8,29.78,SE,138,1.0,9.0,66,0.00,,---,0.00,VWS V14.01,2013-09-19 16:30:00,
2013-09-19 10:40:00,55.6,43.6,29.77,SSE,152,2.0,7.0,64,0.00,,---,0.00,VWS V14.01,2013-09-19 16:40:00,
2013-09-19 10:50:00,56.2,43.8,29.77,SSE,155,0.0,7.0,63,0.00,,---,0.00,VWS V14.01,2013-09-19 16:50:00,
2013-09-19 11:00:00,56.9,44.0,29.75,South,171,9.0,9.0,62,0.00,,---,0.00,VWS V14.01,2013-09-19 17:00:00,
2013-09-19 11:10:00,57.7,44.8,29.74,SSE,167,2.0,9.0,62,0.00,,---,0.00,VWS V14.01,2013-09-19 17:10:00,
2013-09-19 11:20:00,58.1,44.3,29.74,SSE,147,0.0,7.0,60,0.00,,---,0.00,VWS V14.01,2013-09-19 17:20:00,
2013-09-19 11:30:00,58.6,45.2,29.72,SE,134,0.0,9.0,61,0.00,,---,0.00,VWS V14.01,2013-09-19 17:30:00,
2013-09-19 11:40:00,59.5,44.7,29.72,SE,145,1.0,8.0,58,0.00,,---,0.00,VWS V14.01,2013-09-19 17:40:00,
2013-09-19 11:50:00,59.0,44.7,29.72,ESE,106,0.0,10.0,59,0.00,,---,0.00,VWS V14.01,2013-09-19 17:50:00,
2013-09-19 12:00:00,60.3,45.0,29.72,ESE,110,3.0,10.0,57,0.00,,---,0.00,VWS V14.01,2013-09-19 18:00:00,
2013-09-19 12:10:00,60.7,44.5,29.69,East,95,3.0,13.0,55,0.00,,---,0.00,VWS V14.01,2013-09-19 18:10:00,
2013-09-19 12:20:00,61.9,45.1,29.68,ESE,106,4.0,10.0,54,0.00,,---,0.00,VWS V14.01,2013-09-19 18:20:00,
2013-09-19 12:30:00,62.2,44.4,29.67,SE,132,9.0,14.0,52,0.00,,---,0.00,VWS V14.01,2013-09-19 18:30:00,
2013-09-19 12:40:00,62.7,44.3,29.67,ESE,106,6.0,12.0,51,0.00,,---,0.00,VWS V14.01,2013-09-19 18:40:00,
2013-09-19 12:50:00,62.1,42.7,29.67,WSW,237,4.0,12.0,49,0.00,,---,0.00,VWS V14.01,2013-09-19 18:50:00,
2013-09-19 13:00:00,62.6,42.7,29.67,SE,144,0.0,9.0,48,0.00,,---,0.00,VWS V14.01,2013-09-19 19:00:00,
2013-09-19 13:10:00,63.8,43.2,29.67,ESE,123,3.0,7.0,47,0.00,,---,0.00,VWS V14.01,2013-09-19 19:10:00,
2013-09-19 13:20:00,63.1,40.9,29.67,ESE,118,12.0,13.0,44,0.00,,---,0.00,VWS V14.01,2013-09-19 19:20:00,
2013-09-19 13:30:00,65.2,36.9,29.65,SSW,213,4.0,13.0,35,0.00,,---,0.00,VWS V14.01,2013-09-19 19:30:00,
2013-09-19 13:40:00,65.2,35.4,29.65,NNE,23,6.0,14.0,33,0.00,,---,0.00,VWS V14.01,2013-09-19 19:40:00,
2013-09-19 13:50:00,65.7,35.8,29.65,NW,304,11.0,12.0,33,0.00,,---,0.00,VWS V14.01,2013-09-19 19:50:00,
2013-09-19 14:00:00,64.5,34.8,29.65,WNW,286,3.0,11.0,33,0.00,,---,0.00,VWS V14.01,2013-09-19 20:00:00,
2013-09-19 14:20:00,66.7,31.7,29.65,WNW,283,9.0,26.0,27,0.00,,---,0.00,VWS V14.01,2013-09-19 20:20:00,
2013-09-19 14:30:00,66.2,31.3,29.67,WNW,292,14.0,19.0,27,0.00,,---,0.00,VWS V14.01,2013-09-19 20:30:00,
2013-09-19 14:40:00,67.0,33.7,29.65,WNW,296,14.0,22.0,29,0.00,,---,0.00,VWS V14.01,2013-09-19 20:40:00,
2013-09-19 14:50:00,67.4,33.2,29.65,NW,304,12.0,26.0,28,0.00,,---,0.00,VWS V14.01,2013-09-19 20:50:00,
2013-09-19 15:00:00,65.9,32.8,29.66,NW,309,11.0,23.0,29,0.00,,---,0.00,VWS V14.01,2013-09-19 21:00:00,
2013-09-19 15:10:00,66.4,32.3,29.66,WNW,292,10.0,22.0,28,0.00,,---,0.00,VWS V14.01,2013-09-19 21:10:00,
2013-09-19 15:20:00,66.4,31.4,29.66,WNW,290,12.0,16.0,27,0.00,,---,0.00,VWS V14.01,2013-09-19 21:20:00,
2013-09-19 15:30:00,67.1,32.0,29.66,NW,319,4.0,18.0,27,0.00,,---,0.00,VWS V14.01,2013-09-19 21:30:00,
2013-09-19 15:40:00,67.5,32.4,29.66,WNW,290,16.0,18.0,27,0.00,,---,0.00,VWS V14.01,2013-09-19 21:40:00,
2013-09-19 15:50:00,67.1,32.9,29.67,NW,311,11.0,21.0,28,0.00,,---,0.00,VWS V14.01,2013-09-19 21:50:00,
2013-09-19 16:00:00,66.9,32.8,29.66,WNW,286,14.0,22.0,28,0.00,,---,0.00,VWS V14.01,2013-09-19 22:00:00,
2013-09-19 16:10:00,67.2,31.2,29.67,WNW,298,7.0,15.0,26,0.00,,---,0.00,VWS V14.01,2013-09-19 22:10:00,
2013-09-19 16:20:00,67.2,31.2,29.67,WNW,291,18.0,21.0,26,0.00,,---,0.00,VWS V14.01,2013-09-19 22:20:00,
2013-09-19 16:30:00,66.9,30.9,29.66,WNW,284,15.0,19.0,26,0.00,,---,0.00,VWS V14.01,2013-09-19 22:30:00,
2013-09-19 16:40:00,66.2,28.4,29.69,West,280,17.0,22.0,24,0.00,,---,0.00,VWS V14.01,2013-09-19 22:40:00,
2013-09-19 16:50:00,66.2,27.3,29.69,WNW,303,3.0,20.0,23,0.00,,---,0.00,VWS V14.01,2013-09-19 22:50:00,
2013-09-19 17:00:00,66.4,27.5,29.67,West,280,10.0,20.0,23,0.00,,---,0.00,VWS V14.01,2013-09-19 23:00:00,
2013-09-19 17:10:00,66.3,28.5,29.69,West,277,14.0,16.0,24,0.00,,---,0.00,VWS V14.01,2013-09-19 23:10:00,
2013-09-19 17:20:00,65.8,29.0,29.69,West,268,3.0,18.0,25,0.00,,---,0.00,VWS V14.01,2013-09-19 23:20:00,
2013-09-19 17:30:00,66.0,27.2,29.70,West,277,19.0,19.0,23,0.00,,---,0.00,VWS V14.01,2013-09-19 23:30:00,
2013-09-19 17:40:00,65.3,25.5,29.70,WNW,290,15.0,19.0,22,0.00,,---,0.00,VWS V14.01,2013-09-19 23:40:00,
2013-09-19 17:50:00,64.8,25.1,29.71,West,273,10.0,20.0,22,0.00,,---,0.00,VWS V14.01,2013-09-19 23:50:00,
2013-09-19 18:00:00,64.4,26.9,29.71,WNW,288,13.0,17.0,24,0.00,,---,0.00,VWS V14.01,2013-09-20 00:00:00,
2013-09-19 18:10:00,64.1,27.6,29.72,NW,309,10.0,17.0,25,0.00,,---,0.00,VWS V14.01,2013-09-20 00:10:00,
2013-09-19 18:20:00,63.6,28.1,29.72,NW,305,0.0,12.0,26,0.00,,---,0.00,VWS V14.01,2013-09-20 00:20:00,
2013-09-19 18:30:00,62.2,30.4,29.74,NW,304,0.0,0.0,30,0.00,,---,0.00,VWS V14.01,2013-09-20 00:30:00,
2013-09-19 18:40:00,60.8,28.4,29.75,WNW,302,6.0,15.0,29,0.00,,---,0.00,VWS V14.01,2013-09-20 00:40:00,
2013-09-19 18:50:00,59.9,28.4,29.77,WNW,291,6.0,15.0,30,0.00,,---,0.00,VWS V14.01,2013-09-20 00:50:00,
2013-09-19 19:00:00,60.5,25.5,29.78,WNW,284,13.0,17.0,26,0.00,,---,0.00,VWS V14.01,2013-09-20 01:00:00,
2013-09-19 19:10:00,60.8,24.8,29.73,West,281,6.0,16.0,25,0.00,,---,0.00,VWS V14.01,2013-09-20 01:10:00,
2013-09-19 19:20:00,59.0,26.8,29.75,WNW,283,9.0,12.0,29,0.00,,---,0.00,VWS V14.01,2013-09-20 01:20:00,
2013-09-19 19:30:00,55.9,30.0,29.76,WNW,283,0.0,9.0,37,0.00,,---,0.00,VWS V14.01,2013-09-20 01:30:00,
2013-09-19 19:40:00,52.7,29.7,29.81,WNW,283,0.0,0.0,41,0.00,,---,0.00,VWS V14.01,2013-09-20 01:40:00,
2013-09-19 19:50:00,54.0,27.0,29.81,WNW,283,6.0,11.0,35,0.00,,---,0.00,VWS V14.01,2013-09-20 01:50:00,
2013-09-19 20:00:00,56.0,29.4,29.80,WNW,283,0.0,6.0,36,0.00,,---,0.00,VWS V14.01,2013-09-20 02:00:00,
2013-09-19 20:10:00,54.1,29.1,29.78,WNW,283,0.0,0.0,38,0.00,,---,0.00,VWS V14.01,2013-09-20 02:10:00,
2013-09-19 20:20:00,54.3,29.2,29.79,WNW,283,0.0,0.0,38,0.00,,---,0.00,VWS V14.01,2013-09-20 02:20:00,
2013-09-19 20:30:00,53.7,28.7,29.79,WNW,290,6.0,11.0,38,0.00,,---,0.00,VWS V14.01,2013-09-20 02:30:00,
2013-09-19 20:40:00,53.3,29.6,29.79,WNW,290,0.0,6.0,40,0.00,,---,0.00,VWS V14.01,2013-09-20 02:40:00,
2013-09-19 20:50:00,50.8,30.2,29.82,WNW,290,0.0,0.0,45,0.00,,---,0.00,VWS V14.01,2013-09-20 02:50:00,
2013-09-19 21:00:00,50.5,28.9,29.82,WNW,290,0.0,0.0,43,0.00,,---,0.00,VWS V14.01,2013-09-20 03:00:00,
2013-09-19 21:10:00,50.6,30.1,29.79,WNW,290,0.0,0.0,45,0.00,,---,0.00,VWS V14.01,2013-09-20 03:10:00,
2013-09-19 21:20:00,49.9,30.5,29.81,WNW,290,0.0,0.0,47,0.00,,---,0.00,VWS V14.01,2013-09-20 03:20:00,
2013-09-19 21:30:00,49.5,30.1,29.82,WNW,290,0.0,0.0,47,0.00,,---,0.00,VWS V14.01,2013-09-20 03:30:00,
2013-09-19 21:40:00,48.9,30.6,29.82,WNW,290,0.0,0.0,49,0.00,,---,0.00,VWS V14.01,2013-09-20 03:40:00,
2013-09-19 21:50:00,48.3,32.0,29.83,WNW,290,0.0,0.0,53,0.00,,---,0.00,VWS V14.01,2013-09-20 03:50:00,
2013-09-19 22:00:00,47.0,31.7,29.84,WNW,290,0.0,0.0,55,0.00,,---,0.00,VWS V14.01,2013-09-20 04:00:00,
2013-09-19 22:01:00,47.0,31.7,29.84,WNW,290,0.0,0.0,55,0.00,,---,0.00,VWS V14.01,2013-09-20 04:01:00,
2013-09-19 22:10:00,47.4,33.4,29.82,WNW,290,0.0,0.0,58,0.00,,---,0.00,VWS V14.01,2013-09-20 04:10:00,
2013-09-19 22:20:00,48.3,37.1,29.83,WNW,290,0.0,0.0,65,0.00,,---,0.00,VWS V14.01,2013-09-20 04:20:00,
2013-09-19 22:30:00,48.3,38.2,29.83,WNW,290,0.0,0.0,68,0.00,,---,0.00,VWS V14.01,2013-09-20 04:30:00,
2013-09-19 22:40:00,48.1,38.8,29.84,WNW,290,0.0,0.0,70,0.00,,---,0.00,VWS V14.01,2013-09-20 04:40:00,
2013-09-19 22:50:00,46.6,38.8,29.84,WNW,289,0.0,0.0,74,0.00,,---,0.00,VWS V14.01,2013-09-20 04:50:00,
2013-09-19 23:00:00,46.3,38.8,29.85,WNW,290,0.0,0.0,75,0.00,,---,0.00,VWS V14.01,2013-09-20 05:00:00,
2013-09-19 23:10:00,45.2,38.4,29.84,WNW,290,0.0,0.0,77,0.00,,---,0.00,VWS V14.01,2013-09-20 05:10:00,
2013-09-19 23:20:00,44.5,38.4,29.84,WNW,290,0.0,0.0,79,0.00,,---,0.00,VWS V14.01,2013-09-20 05:20:00,
2013-09-19 23:30:00,43.9,38.5,29.84,WNW,290,0.0,0.0,81,0.00,,---,0.00,VWS V14.01,2013-09-20 05:30:00,
2013-09-19 23:40:00,44.0,38.5,29.84,WNW,290,0.0,0.0,81,0.00,,---,0.00,VWS V14.01,2013-09-20 05:40:00,
2013-09-19 23:50:00,43.9,38.8,29.84,WNW,290,0.0,0.0,82,0.00,,---,0.00,VWS V14.01,2013-09-20 05:50:00,